Location: Luxembourg
(49.6117°N, 6.1300°E)
Time: 21:48:06
(UTC+01:00)

X-37B - Visible Passes

Search period start: 03 December 2021 00:00
Search period end: 13 December 2021 00:00
Orbit: 330 x 341 km, 45.0° (Epoch: 20 November)

Date Brightness Start Highest point End Pass type
(mag) Time Alt. Az. Time Alt. Az. Time Alt. Az.
08 Dec 2.6 18:36:09 10° SSW 18:37:44 17° S 18:37:44 17° S visible
09 Dec 2.6 18:55:53 10° SW 18:57:18 20° SSW 18:57:18 20° SSW visible
10 Dec 2.6 17:41:35 10° SSW 17:43:34 17° SSE 17:45:33 10° ESE visible
10 Dec 3.2 19:15:59 10° WSW 19:16:51 17° SW 19:16:51 17° SW visible
11 Dec 2.0 18:01:18 10° SW 18:03:46 25° SSE 18:05:09 17° SE visible
11 Dec 4.0 19:36:16 10° WSW 19:36:23 11° WSW 19:36:23 11° WSW visible
12 Dec 1.6 18:21:24 10° WSW 18:24:01 31° S 18:24:42 27° SSE visible
